Regional Weather Roundup
Issued by NWS

Home | Current Version | Previous Version | Text Only | Print | Product List | Glossary On
Versions: 1 2 3 4 5 6 7 8 9 10 11 12 13 14 15 16 17 18 19 20 21 22 23 24 25 26 27 28 29 30 31 32 33 34 35 36 37 38 39 40 41 42 43 44 45 46 47 48 49 50
000
ASUS43 KBIS 051010
RWRND

NORTH DAKOTA REGIONAL WEATHER ROUNDUP
NATIONAL WEATHER SERVICE BISMARCK ND
500 AM CDT SUN JUL 05 2015

NOTE: "FAIR" INDICATES FEW OR NO CLOUDS BELOW 12,000 FEET WITH NO
SIGNIFICANT WEATHER AND/OR OBSTRUCTIONS TO VISIBILITY.


NDZ001>003-009>011-017-051100-
NORTHWEST NORTH DAKOTA

CITY           SKY/WX    TMP DP  RH WIND       PRES   REMARKS
WILLISTON      RAIN      66  63  90 N22G28    29.87R
MINOT          CLOUDY    62  60  93 N9        29.76R FOG
MINOT AFB      MOCLDY    62  62 100 N8        29.77R
$$

NDZ018>021-031>035-040>046-051100-
SOUTHWEST NORTH DAKOTA

CITY           SKY/WX    TMP DP  RH WIND       PRES   REMARKS
BISMARCK       PTCLDY    68  67  96 E7        29.70F
DICKINSON      PTCLDY    62  60  93 NE8       29.72F
GARRISON         N/A     66  62  87 N7        29.72F
HETTINGER ARPT CLEAR     58  56  93 CALM      29.74F
$$

NDZ004>008-012>016-024-026-027-054-051100-
NORTHEAST NORTH DAKOTA

CITY           SKY/WX    TMP DP  RH WIND       PRES   REMARKS
GRAND FORKS    MOCLDY    68  67  96 SE10      29.73F
GRND FRKS AFB  MOCLDY    67  65  94 SE8       29.75F
DEVILS LAKE    PTCLDY    66  61  82 NE8       29.72F
$$

NDZ022-023-025-028>030-036>039-047>053-051100-
SOUTHEAST NORTH DAKOTA

CITY           SKY/WX    TMP DP  RH WIND       PRES   REMARKS
FARGO          MOCLDY    71  65  81 S13       29.75R
JAMESTOWN      CLEAR     68  65  90 SE7       29.73S
$$



USA.gov is the U.S. government's official web portal to all federal, state and local government web resources and services.